Regional Weather Roundup
Issued by NWS

Home | Current Version | Previous Version | Graphics & Text | Print | Product List | Glossary On
Versions: 1 2 3 4 5 6 7 8 9 10 11 12 13 14 15 16 17 18 19 20 21 22 23 24 25 26 27 28 29 30 31 32 33 34 35 36 37 38 39 40 41 42 43 44 45 46 47 48 49 50
000
ASUS45 KABQ 242201
RWRNM
NEW MEXICO REGIONAL WEATHER ROUNDUP
NATIONAL WEATHER SERVICE ALBUQUERQUE NM
400 PM MDT SAT JUN 24 2017

NOTE: "FAIR" MEANS FEW OR NO CLOUDS BELOW 12,000 FEET AGL WITH NO
       SIGNIFICANT WEATHER OR OBSTRUCTIONS TO VISION.

      THIS PRODUCT IS RELEASED AS TWO VERSIONS.  ONE VERSION NEAR
      THE TOP OF THE HOUR CONTAINING PRELIMINARY DATA FROM ALBUQUERQUE
      AND OTHER STATIONS.  A FINAL VERSION WITH ADDITIONAL DATA IS
      ISSUED ABOUT 10 MINUTES AFTER THE HOUR.

NMZ501-503-504-510>518-242300-
NORTHWEST PLATEAU/NORTHCENTRAL MOUNTAINS

CITY           SKY/WX    TMP DP  RH WIND       PRES   REMARKS
FARMINGTON     FAIR      94  20   7 W14G23    30.09F
LOS ALAMOS     FAIR      80  46  30 S15G23    30.28F
SANTA FE       FAIR      84  49  29 SE24      30.22F
TAOS           FAIR      82  45  26 SW17G30   30.24F
ANGEL FIRE     FAIR      71  49  45 S17G23    30.35F

$$
NMZ402-403-502-505>509-242300-
WESTCENTRAL MOUNTAINS/SOUTHWEST MOUNTAINS

CITY           SKY/WX    TMP DP  RH WIND       PRES   REMARKS
GALLUP         FAIR      95  21   7 W13G22    30.17F
GRANTS         FAIR      87  45  22 SE13G28   30.22F
SILVER CITY    FAIR      95  49  20 SE18G24   30.12S

$$
NMZ407-409-411-412-242300-
SOUTHERN DESERTS

CITY           SKY/WX    TMP DP  RH WIND       PRES   REMARKS
DEMING         FAIR      98  51  20 SE17G26   30.01F HX  95
LAS CRUCES     FAIR      94  48  20 E21G28    30.08S
HOLLOMAN AFB   FAIR      93  50  23 S21G28    30.08F
ALAMOGORDO     FAIR      93  48  21 S20G25    30.07F
T OR C         FAIR      94  48  20 S20G26    30.06F

$$
NMZ519>523-242300-
CENTRAL VALLEYS/CENTRAL HIGHLANDS

CITY           SKY/WX    TMP DP  RH WIND       PRES   REMARKS
ALBUQUERQUE    PTSUNNY   89  51  27 SW9       30.14F
DOUBLE EAGLE   MOSUNNY   88  54  31 SE12G20   30.19F
MORIARTY ARPT  FAIR      81  49  32 SE13G20   30.27F
CLINES CORNERS FAIR      75  49  39 S17G24    30.34F
BELEN          FAIR      87  47  24 SE14      30.16S
SOCORRO        CLOUDY    84  40  21 W23G31    30.16R THUNDER

$$
NMZ524>526-539-540-242300-
SOUTHCENTRAL MOUNTAINS

CITY           SKY/WX    TMP DP  RH WIND       PRES   REMARKS
RUIDOSO        FAIR      72  50  46 SE16      30.35F

$$
NMZ527>531-242300-
NORTHEAST HIGHLANDS/NORTHEAST PLAINS

CITY           SKY/WX    TMP DP  RH WIND       PRES   REMARKS
LAS VEGAS      FAIR      72  47  40 SE20G29   30.32F
RATON          PTSUNNY   70  46  42 S14       30.29F
CLAYTON        PTSUNNY   69  52  54 SE12      30.28F

$$
NMZ532>537-242300-
EASTCENTRAL PLAINS

CITY           SKY/WX    TMP DP  RH WIND       PRES   REMARKS
SANTA ROSA     CLOUDY    74  55  50 SE10G17   30.23F
TUCUMCARI      CLOUDY    72  56  57 E8        30.22F
CANNON AFB     CLOUDY    75  59  55 E10       30.23F
CLOVIS AIRPORT PTSUNNY   77  58  51 S10       30.24F

$$
NMZ028-029-538-242300-
SOUTHEAST PLAINS

CITY           SKY/WX    TMP DP  RH WIND       PRES   REMARKS
ROSWELL        PTSUNNY   85  56  37 SE13G22   30.15F
ARTESIA        PTSUNNY   82  59  44 SE13      30.15F
CARLSBAD       PTSUNNY   85  61  44 S15G21    30.12F
HOBBS          MOSUNNY   81  59  47 SE12      30.19F


$$




USA.gov is the U.S. government's official web portal to all federal, state and local government web resources and services.